Change the Weather History Date:

Sunday, May 19, 2013

  Actual Average Record
Temperature  
Mean Temperature 68 °F -  
Max Temperature 78 °F 72 °F 104 °F (1934)
Min Temperature 62 °F 49 °F 34 °F (1954)
Cooling Degree Days 4    
Growing Degree Days 18 (Base 50)    
Moisture  
Dew Point 63 °F    
Average Humidity 87    
Maximum Humidity 100    
Minimum Humidity 58    
Precipitation  
Precipitation 0.48 in - - ()
Sea Level Pressure  
Sea Level Pressure 29.64 in    
Wind  
Wind Speed 11 mph (SSE)    
Max Wind Speed 23 mph    
Max Gust Speed 32 mph    
Visibility 7 miles    
Events Rain , Thunderstorm    
Averages and records for this station are not official NWS values.
T = Trace of Precipitation, MM = Missing Value Source: NWS Daily Summary

Daily Weather History Graph

Daily Weather History Graph

Search for Another Location

Airport or City:

Trip Planner

Search our weather history database for the weather conditions in past years. The results will help you decide how hot, cold, wet, or windy it might be!

Date:

Astronomy

May. 19, 2013 Rise Set
Actual Time 5:48 AM CDT 8:46 PM CDT
Civil Twilight 5:13 AM CDT 9:20 PM CDT
Nautical Twilight 4:29 AM CDT 10:04 PM CDT
Astronomical Twilight 3:38 AM CDT 10:57 PM CDT
Moon 2:37 PM CDT (5/19) 2:26 AM CDT (5/19)
Length of Visible Light 16h 06m
Length of Day
14h 57m
Waxing Gibbous, 65% of the Moon is Illuminated
May 19
Waxing Gibbous
May 24
Full
May 31
Last Quarter
Jun 8
New
Jun 16
First Quarter

Hourly Weather History & Observations

Time (CDT) Temp. Dew Point Humidity Pressure Visibility Wind Dir Wind Speed Gust Speed Precip Events Conditions
12:53 AM 71.1 °F 61.0 °F 70% 29.72 in 10.0 mi SE 13.8 mph - N/A   Overcast
1:53 AM 70.0 °F 61.0 °F 73% 29.70 in 10.0 mi SE 15.0 mph - N/A   Overcast
2:53 AM 70.0 °F 61.0 °F 73% 29.70 in 10.0 mi ESE 11.5 mph - N/A   Overcast
3:43 AM 68.0 °F 62.6 °F 83% 29.70 in 3.0 mi SE 4.6 mph - 0.16 in Rain , Thunderstorm Heavy Thunderstorms and Rain
3:49 AM 66.2 °F 62.6 °F 88% 29.70 in 2.5 mi East 9.2 mph - 0.16 in Rain , Thunderstorm Light Thunderstorms and Rain
3:50 AM 66.2 °F 62.6 °F 88% 29.70 in 3.0 mi East 9.2 mph - 0.16 in Rain , Thunderstorm Light Thunderstorms and Rain
3:53 AM 66.9 °F 62.1 °F 84% 29.68 in 7.0 mi ESE 9.2 mph - 0.16 in Rain , Thunderstorm Light Thunderstorms and Rain
4:28 AM 66.2 °F 64.4 °F 94% 29.69 in 2.5 mi ESE 4.6 mph - 0.14 in Rain , Thunderstorm Thunderstorms and Rain
4:36 AM 66.2 °F 64.4 °F 94% 29.69 in 5.0 mi North 4.6 mph - 0.15 in Rain , Thunderstorm Light Rain
4:44 AM 64.4 °F 64.4 °F 100% 29.69 in 5.0 mi Calm Calm - 0.15 in Rain , Thunderstorm Light Rain
4:53 AM 66.0 °F 64.0 °F 93% 29.68 in 6.0 mi Calm Calm - 0.15 in   Overcast
5:03 AM 66.2 °F 64.4 °F 94% 29.70 in 6.0 mi SSE 5.8 mph - 0.00 in Rain Light Rain
5:25 AM 66.2 °F 64.4 °F 94% 29.68 in 8.0 mi SSE 13.8 mph - 0.00 in   Mostly Cloudy
5:53 AM 66.9 °F 64.0 °F 90% 29.64 in 7.0 mi ESE 9.2 mph - 0.00 in   Scattered Clouds
6:35 AM 64.4 °F 64.4 °F 100% 29.55 in 2.5 mi NE 10.4 mph - 0.01 in   Overcast
6:45 AM 64.4 °F 64.4 °F 100% 29.58 in 3.0 mi NE 4.6 mph - 0.01 in   Mostly Cloudy
7:53 AM 66.0 °F 64.0 °F 93% 29.67 in 5.0 mi SSE 23.0 mph 32.2 mph N/A   Overcast
8:00 AM 66.2 °F 64.4 °F 94% 29.69 in 5.0 mi South 16.1 mph 32.2 mph N/A   Overcast
8:07 AM 66.2 °F 64.4 °F 94% 29.69 in 6.0 mi South 16.1 mph - N/A   Overcast
8:32 AM 66.2 °F 64.4 °F 94% 29.68 in 9.0 mi SSE 12.7 mph - N/A   Mostly Cloudy
8:53 AM 66.0 °F 64.0 °F 93% 29.65 in 8.0 mi ESE 10.4 mph - 0.00 in Rain Light Rain
9:28 AM 68.0 °F 64.4 °F 88% 29.65 in 8.0 mi SE 16.1 mph 21.9 mph 0.00 in   Partly Cloudy
9:53 AM 71.1 °F 66.0 °F 84% 29.64 in 8.0 mi SSE 16.1 mph - 0.00 in   Mostly Cloudy
10:15 AM 73.4 °F 66.2 °F 78% 29.64 in 10.0 mi SSE 17.3 mph - N/A   Mostly Cloudy
10:24 AM 73.4 °F 64.4 °F 73% 29.63 in 10.0 mi South 15.0 mph 23.0 mph N/A   Scattered Clouds
10:53 AM 75.0 °F 66.9 °F 76% 29.62 in 10.0 mi South 16.1 mph - N/A   Clear
11:53 AM 75.0 °F 64.9 °F 71% 29.65 in 10.0 mi South 18.4 mph 28.8 mph N/A   Scattered Clouds
12:53 PM 75.9 °F 60.1 °F 58% 29.61 in 10.0 mi SSW 16.1 mph 24.2 mph N/A   Partly Cloudy
2:53 PM 72.0 °F 63.0 °F 73% 29.62 in 10.0 mi South 11.5 mph - 0.00 in   Mostly Cloudy
3:53 PM 72.0 °F 63.0 °F 73% 29.61 in 10.0 mi SW 8.1 mph - N/A   Overcast
4:53 PM 69.1 °F 63.0 °F 81% 29.62 in 10.0 mi SSW 10.4 mph - 0.02 in Rain Light Rain
5:22 PM 66.2 °F 64.4 °F 94% 29.63 in 2.5 mi SW 9.2 mph - 0.07 in Rain Rain
5:30 PM 66.2 °F 62.6 °F 88% 29.63 in 1.2 mi SW 6.9 mph - 0.12 in Rain Rain
5:38 PM 66.2 °F 64.4 °F 94% 29.63 in 3.0 mi SW 11.5 mph - 0.14 in Rain Rain
5:48 PM 66.2 °F 62.6 °F 88% 29.63 in 5.0 mi WSW 11.5 mph - 0.15 in Rain Light Rain
5:53 PM 66.0 °F 63.0 °F 90% 29.61 in 7.0 mi West 10.4 mph - 0.15 in Rain Light Rain
6:53 PM 66.9 °F 64.0 °F 90% 29.58 in 10.0 mi North 6.9 mph - 0.00 in   Scattered Clouds
7:53 PM 66.9 °F 61.0 °F 81% 29.56 in 10.0 mi East 5.8 mph - N/A   Clear
8:53 PM 64.9 °F 62.1 °F 90% 29.57 in 10.0 mi SE 4.6 mph - N/A   Clear
9:53 PM 63.0 °F 61.0 °F 93% 29.55 in 10.0 mi ESE 3.5 mph - N/A   Clear
11:32 PM 62.6 °F 60.8 °F 94% 29.56 in 5.0 mi Calm Calm - N/A   Partly Cloudy
11:53 PM 62.1 °F 61.0 °F 96% 29.54 in 5.0 mi East 4.6 mph - N/A   Clear